TimePST,TemperatureF,Dew PointF,Humidity,Sea Level PressureIn,VisibilityMPH,Wind Direction,Wind SpeedMPH,Gust SpeedMPH,PrecipitationIn,Events,Conditions,WindDirDegrees,DateUTC
12:53 AM,15.1,10.9,84,30.40,6.0,WSW,5.8,-,N/A,,Overcast,250,2013-01-22 08:53:00
1:53 AM,15.1,10.9,84,30.40,5.0,SW,4.6,-,N/A,,Overcast,230,2013-01-22 09:53:00
2:53 AM,16.0,12.0,84,30.38,4.0,Calm,Calm,-,N/A,,Overcast,0,2013-01-22 10:53:00
3:45 AM,17.6,12.2,79,30.28,2.5,Calm,Calm,-,N/A,,Overcast,0,2013-01-22 11:45:00
3:53 AM,17.1,12.9,84,30.36,2.5,Calm,Calm,-,N/A,,Overcast,0,2013-01-22 11:53:00
4:04 AM,17.6,14.0,86,30.27,1.2,Calm,Calm,-,N/A,,Overcast,0,2013-01-22 12:04:00
4:23 AM,17.6,14.0,86,30.28,2.5,Calm,Calm,-,N/A,,Overcast,0,2013-01-22 12:23:00
4:53 AM,19.0,15.1,85,30.36,2.0,SSW,3.5,-,N/A,,Overcast,200,2013-01-22 12:53:00
5:00 AM,19.4,15.8,86,30.27,1.8,Calm,Calm,-,N/A,,Overcast,0,2013-01-22 13:00:00
5:48 AM,17.6,14.0,86,30.26,2.0,Calm,Calm,-,N/A,,Overcast,0,2013-01-22 13:48:00
5:53 AM,18.0,14.0,84,30.35,2.0,Calm,Calm,-,N/A,,Overcast,0,2013-01-22 13:53:00
6:53 AM,18.0,15.1,88,30.37,1.2,Calm,Calm,-,N/A,,Overcast,0,2013-01-22 14:53:00
7:21 AM,17.6,12.2,79,30.28,0.5,SW,3.5,-,N/A,Fog,Light Freezing Fog,220,2013-01-22 15:21:00
7:53 AM,17.1,14.0,88,30.37,0.2,Calm,Calm,-,N/A,Fog,Light Freezing Fog,0,2013-01-22 15:53:00
8:53 AM,19.0,15.1,85,30.35,0.5,Calm,Calm,-,N/A,Fog,Light Freezing Fog,0,2013-01-22 16:53:00
9:53 AM,19.0,15.1,85,30.36,0.2,Calm,Calm,-,N/A,Fog,Light Freezing Fog,0,2013-01-22 17:53:00
10:00 AM,19.4,15.8,86,30.28,1.0,Calm,Calm,-,N/A,,Overcast,0,2013-01-22 18:00:00
10:08 AM,19.4,15.8,86,30.28,1.0,SE,3.5,-,N/A,,Haze,140,2013-01-22 18:08:00
10:53 AM,19.9,16.0,85,30.37,1.0,Calm,Calm,-,N/A,,Overcast,0,2013-01-22 18:53:00
11:00 AM,19.4,15.8,86,30.28,2.0,Calm,Calm,-,N/A,,Overcast,0,2013-01-22 19:00:00
11:53 AM,21.0,16.0,81,30.35,3.0,East,3.5,-,N/A,,Haze,90,2013-01-22 19:53:00
12:53 PM,23.0,18.0,81,30.32,5.0,Calm,Calm,-,N/A,,Haze,0,2013-01-22 20:53:00
1:53 PM,24.1,19.0,81,30.30,5.0,Calm,Calm,-,N/A,,Haze,0,2013-01-22 21:53:00
2:53 PM,25.0,19.9,81,30.28,5.0,Calm,Calm,-,N/A,,Haze,0,2013-01-22 22:53:00
3:53 PM,25.0,19.9,81,30.27,6.0,Calm,Calm,-,N/A,,Haze,0,2013-01-22 23:53:00
4:53 PM,24.1,19.0,81,30.26,9.0,Calm,Calm,-,N/A,,Overcast,0,2013-01-23 00:53:00
5:53 PM,24.1,19.9,84,30.25,7.0,Calm,Calm,-,N/A,,Mostly Cloudy,0,2013-01-23 01:53:00
6:53 PM,23.0,19.0,85,30.25,7.0,Calm,Calm,-,N/A,,Overcast,0,2013-01-23 02:53:00
7:53 PM,23.0,19.9,88,30.25,6.0,Calm,Calm,-,N/A,,Overcast,0,2013-01-23 03:53:00
8:53 PM,24.1,19.0,81,30.24,6.0,Calm,Calm,-,N/A,,Haze,0,2013-01-23 04:53:00
9:53 PM,24.8,19.4,80,30.16,6.0,Calm,Calm,-,N/A,,Overcast,0,2013-01-23 05:53:00
10:53 PM,24.1,19.9,84,30.24,6.0,Calm,Calm,-,N/A,,Overcast,0,2013-01-23 06:53:00
11:53 PM,24.1,19.0,81,30.22,9.0,Calm,Calm,-,N/A,,Mostly Cloudy,0,2013-01-23 07:53:00